スペースウォッチ-リニア彗星

475P/Spacewatch-LINEAR (2024)

English version
Home page
Updated on August 10, 2025

---------------------------------------------------------------------

・ プロフィール

符号 475P/2023 V7
検出日 2023年11月11日、13日、25日、2024年1月17日
検出光度 20.8等、19.8等、20.6等、20.1等
検出者 M. Micheli (European Space Agency's Optical Ground Station at Tenerife), F. Ocana (Calar Alto Schmidt telescope), Pan-STARRS 2 telescope (Haleakala), M. Jaeger (Vienna)

・ 写真集

・ 軌道要素

Epoch 2025 May 5.0 TT = JDT 2460800.5
T 2024 June 1.63470 TT                                  Pike
q   4.0774183            (2000.0)            P               Q
n   0.04979781     Peri.   40.40507     -0.97965402     +0.14827206
a   7.3169357      Node   147.36211     -0.17265234     -0.96622539
e   0.4427424      Incl.   14.52373     +0.10231900     -0.21076978
P  19.8
From 159 observations 2004 Feb. 11-2025 June 19, mean residual 0".7.

・ 光度変化

        m1 = 10.5 + 5 logΔ + 10.0 log r

---------------------------------------------------------------------

軌道要素はM.P.E.C. 2025-M120に掲載されたものです。
光度グラフはComet for Windowsで作成したものです。

---------------------------------------------------------------------

Copyright(C) Seiichi Yoshida (comet@aerith.net). All rights reserved.